Anchorage Merrill, AK

12:29 PM AKDT on March 25, 2017 (GMT -0800)
Merrill

Weather History for PAMR - December, 2011

Change the Weather History Date:

Thursday, December 15, 2011

  Actual Average Record
Temperature  
Mean Temperature 28 °F -  
Max Temperature 39 °F 21 °F 39 °F (2011)
Min Temperature 16 °F 9 °F -8 °F (1999)
Degree Days  
Heating Degree Days 38    
Moisture  
Dew Point 18 °F    
Average Humidity 81    
Maximum Humidity 89    
Minimum Humidity 50    
Precipitation  
Precipitation 0.00 in - - ()
Snow  
Snow 0.00 in - - ()
Snow Depth 6.00 in    
Sea Level Pressure  
Sea Level Pressure 29.33 in    
Wind  
Wind Speed 3 mph (East)    
Max Wind Speed 10 mph    
Max Gust Speed 18 mph    
Visibility 10 miles    
Events      
Averages and records for this station are not official NWS values.
T = Trace of Precipitation, MM = Missing Value Source: NWS Daily Summary

Daily Weather History Graph

Daily Weather History Graph

Search for Another Location

Airport or City:

Trip Planner

Search our weather history database for the weather conditions in past years. The results will help you decide how hot, cold, wet, or windy it might be!

Date:

Astronomy

Dec. 15, 2011 Rise Set
Actual Time 10:08 AM AKST 3:40 PM AKST
Civil Twilight 9:07 AM AKST 4:42 PM AKST
Nautical Twilight 8:07 AM AKST 5:41 PM AKST
Astronomical Twilight 7:13 AM AKST 6:35 PM AKST
Moon 10:48 PM AKST (12/15) 12:07 PM AKST (12/15)
Length of Visible Light 7h 35m
Length of Day
5h 31m
Waning Gibbous, 73% of the Moon is Illuminated
Dec 15
Waning Gibbous
Dec 17
Last Quarter
Dec 24
New
Dec 31
First Quarter
Jan 8
Full

Hourly Weather History & Observations

Time (AKST) Temp. Windchill Dew Point Humidity Pressure Visibility Wind Dir Wind Speed Gust Speed Precip Events Conditions
12:53 AM 16.0 °F - 12.0 °F 84% 29.59 in 10.0 mi Calm Calm - N/A   Mostly Cloudy
1:53 AM 17.1 °F 11.7 °F 12.9 °F 84% 29.56 in 10.0 mi NE 3.5 mph - N/A   Mostly Cloudy
2:53 AM 17.1 °F 10.0 °F 14.0 °F 88% 29.49 in 10.0 mi North 4.6 mph - N/A   Mostly Cloudy
3:53 AM 18.0 °F - 15.1 °F 88% 29.46 in 10.0 mi Calm Calm - N/A   Mostly Cloudy
4:53 AM 19.0 °F 12.3 °F 15.1 °F 85% 29.42 in 10.0 mi Variable 4.6 mph - N/A   Overcast
5:53 AM 19.0 °F - 16.0 °F 88% 29.37 in 10.0 mi Calm Calm - N/A   Overcast
6:53 AM 19.0 °F 11.1 °F 16.0 °F 88% 29.35 in 10.0 mi Variable 5.8 mph - N/A   Overcast
7:53 AM 19.9 °F 13.4 °F 17.1 °F 89% 29.30 in 10.0 mi NE 4.6 mph - N/A   Mostly Cloudy
8:53 AM 19.9 °F 14.9 °F 17.1 °F 89% 29.27 in 10.0 mi North 3.5 mph - N/A   Mostly Cloudy
9:53 AM 21.9 °F 15.7 °F 18.0 °F 85% 29.23 in 10.0 mi NE 4.6 mph - N/A   Overcast
10:53 AM 21.9 °F - 18.0 °F 85% 29.20 in 10.0 mi Calm Calm - N/A   Overcast
11:53 AM 21.9 °F - 19.0 °F 89% 29.19 in 10.0 mi Calm Calm - N/A   Overcast
12:53 PM 23.0 °F - 19.0 °F 85% 29.19 in 10.0 mi Calm Calm - N/A   Mostly Cloudy
1:53 PM 24.1 °F - 19.9 °F 84% 29.20 in 10.0 mi Calm Calm - N/A   Mostly Cloudy
2:53 PM 25.0 °F - 19.9 °F 81% 29.24 in 10.0 mi Calm Calm - N/A   Mostly Cloudy
2:56 PM 24.8 °F - 21.2 °F 86% 29.23 in 10.0 mi Calm Calm - N/A   Mostly Cloudy
3:53 PM 19.0 °F 12.3 °F 16.0 °F 88% 29.27 in 10.0 mi ENE 4.6 mph - N/A   Mostly Cloudy
4:53 PM 23.0 °F 18.4 °F 19.0 °F 85% 29.28 in 10.0 mi ENE 3.5 mph - N/A   Mostly Cloudy
5:53 PM 21.0 °F 13.4 °F 17.1 °F 85% 29.29 in 10.0 mi East 5.8 mph - N/A   Partly Cloudy
6:53 PM 21.9 °F - 18.0 °F 85% 29.31 in 10.0 mi Calm Calm - N/A   Scattered Clouds
7:53 PM 25.0 °F - 19.9 °F 81% 29.33 in 10.0 mi Calm Calm - N/A   Overcast
8:53 PM 37.9 °F 30.9 °F 26.1 °F 62% 29.35 in 10.0 mi South 10.4 mph 18.4 mph N/A   Overcast
9:53 PM 39.0 °F 34.0 °F 26.1 °F 60% 29.37 in 10.0 mi South 6.9 mph - N/A   Mostly Cloudy
10:53 PM 39.0 °F 33.4 °F 25.0 °F 57% 29.39 in 10.0 mi South 8.1 mph - N/A   Scattered Clouds
11:53 PM 39.0 °F 34.0 °F 21.9 °F 50% 29.41 in 10.0 mi South 6.9 mph - N/A   Scattered Clouds